• In Slovakia
  • List of Countries
  • For 7 days
  • Water Temperature
  • Satellite Maps
  • Weather Map
  • Weather Widgets
  • user-avatar
    Login

    Hourly Weather Solden

    Today, 16 October, Tuesday

    Time Temperature Precipitation Wind Pressure Humidity
    00:00 +1°C° 0 mm 1 mps 583 mmHg 93%
    01:00 +1°C° 0 mm 1 mps 583 mmHg 93%
    02:00 +1°C° 0 mm 1 mps 583 mmHg 92%
    03:00 +1°C° 0 mm 1 mps 583 mmHg 91%
    04:00 +1°C° 0 mm 1 mps 583 mmHg 90%
    05:00 +1°C° 0 mm 1 mps 583 mmHg 89%
    06:00 +1°C° 0 mm 1 mps 583 mmHg 88%
    07:00 +1°C° 0 mm 1 mps 583 mmHg 86%
    08:00 +3°C° 0 mm 1 mps 584 mmHg 77%
    09:00 +6°C° 0 mm 1 mps 585 mmHg 67%
    10:00 +8°C° 0 mm 1 mps 587 mmHg 57%
    11:00 +9°C° 0 mm 1 mps 587 mmHg 54%
    12:00 +9°C° 0 mm 1 mps 587 mmHg 52%
    13:00 +10°C° 0 mm 1 mps 587 mmHg 49%
    14:00 +10°C° 0 mm 1 mps 587 mmHg 52%
    15:00 +9°C° 0 mm 1 mps 587 mmHg 56%
    16:00 +9°C° 0 mm 1 mps 586 mmHg 60%
    17:00 +7°C° 0 mm 1 mps 585 mmHg 70%
    18:00 +5°C° 0 mm 1 mps 585 mmHg 79%
    19:00 +3°C° 0 mm 1 mps 584 mmHg 89%
    20:00 +3°C° 0 mm 1 mps 584 mmHg 89%
    21:00 +3°C° 0 mm 1 mps 584 mmHg 90%
    22:00 +2°C° 0 mm 1 mps 584 mmHg 90%
    23:00 +2°C° 0 mm 1 mps 584 mmHg 91%

    Tomorrow, 17 October, Wednesday

    Time Temperature Precipitation Wind Pressure Humidity
    00:00 +2°C° 0 mm 1 mps 584 mmHg 91%
    01:00 +2°C° 0 mm 1 mps 584 mmHg 91%
    02:00 +2°C° 0 mm 1 mps 583 mmHg 91%
    03:00 +2°C° 0 mm 1 mps 583 mmHg 91%
    04:00 +1°C° 0 mm 1 mps 583 mmHg 90%
    05:00 +1°C° 0 mm 1 mps 583 mmHg 90%
    06:00 +2°C° 0 mm 1 mps 583 mmHg 89%
    07:00 +2°C° 0 mm 1 mps 583 mmHg 88%
    08:00 +4°C° 0 mm 1 mps 584 mmHg 78%
    09:00 +6°C° 0 mm 1 mps 585 mmHg 68%
    10:00 +8°C° 0 mm 0 mps 586 mmHg 59%
    11:00 +9°C° 0 mm 1 mps 586 mmHg 56%
    12:00 +10°C° 0 mm 1 mps 586 mmHg 53%
    13:00 +11°C° 0 mm 1 mps 586 mmHg 51%
    14:00 +10°C° 0 mm 1 mps 586 mmHg 55%
    15:00 +10°C° 0 mm 1 mps 586 mmHg 58%
    16:00 +9°C° 0 mm 1 mps 585 mmHg 62%
    17:00 +7°C° 0 mm 1 mps 584 mmHg 72%
    18:00 +5°C° 0 mm 1 mps 584 mmHg 81%
    19:00 +2°C° 0 mm 0 mps 583 mmHg 91%
    20:00 +2°C° 0.1 mm 0 mps 583 mmHg 91%
    21:00 +2°C° 0.1 mm 0 mps 583 mmHg 91%
    22:00 +3°C° 0.1 mm 1 mps 583 mmHg 91%
    23:00 +3°C° 0.1 mm 1 mps 583 mmHg 91%

    Day after tomorrow, 18 October, Thursday

    Time Temperature Precipitation Wind Pressure Humidity
    00:00 +3°C° 0.1 mm 1 mps 582 mmHg 91%
    01:00 +3°C° 0.1 mm 1 mps 582 mmHg 91%
    02:00 +2°C° 0.1 mm 1 mps 582 mmHg 90%
    03:00 +2°C° 0.1 mm 1 mps 582 mmHg 90%
    04:00 +2°C° 0.1 mm 1 mps 582 mmHg 90%
    05:00 +2°C° 0 mm 1 mps 582 mmHg 89%
    06:00 +2°C° 0 mm 1 mps 582 mmHg 88%
    07:00 +2°C° 0 mm 1 mps 582 mmHg 88%
    08:00 +3°C° 0 mm 0 mps 583 mmHg 79%
    09:00 +6°C° 0 mm 0 mps 584 mmHg 70%
    10:00 +8°C° 0 mm 0 mps 585 mmHg 61%
    11:00 +10°C° 0 mm 1 mps 586 mmHg 58%
    12:00 +11°C° 0 mm 1 mps 586 mmHg 55%
    13:00 +11°C° 0 mm 1 mps 586 mmHg 52%
    14:00 +11°C° 0 mm 1 mps 586 mmHg 55%
    15:00 +10°C° 0 mm 1 mps 585 mmHg 59%
    16:00 +10°C° 0 mm 1 mps 585 mmHg 62%
    17:00 +8°C° 0 mm 1 mps 584 mmHg 72%
    18:00 +6°C° 0 mm 1 mps 583 mmHg 82%
    19:00 +3°C° 0 mm 0 mps 583 mmHg 92%
    20:00 +3°C° 0 mm 0 mps 583 mmHg 92%
    21:00 +3°C° 0 mm 0 mps 583 mmHg 93%
    22:00 +2°C° 0 mm 0 mps 583 mmHg 93%
    23:00 +3°C° 0 mm 1 mps 583 mmHg 93%

    19 October, Friday

    Time Temperature Precipitation Wind Pressure Humidity
    00:00 +3°C° 0 mm 1 mps 583 mmHg 92%
    01:00 +3°C° 0 mm 1 mps 583 mmHg 92%
    02:00 +2°C° 0 mm 1 mps 583 mmHg 91%
    03:00 +2°C° 0 mm 1 mps 583 mmHg 91%
    04:00 +2°C° 0 mm 1 mps 583 mmHg 90%
    05:00 +2°C° 0 mm 1 mps 583 mmHg 90%
    06:00 +2°C° 0 mm 1 mps 583 mmHg 89%
    07:00 +2°C° 0 mm 1 mps 583 mmHg 89%
    08:00 +4°C° 0 mm 1 mps 584 mmHg 79%
    09:00 +7°C° 0 mm 1 mps 586 mmHg 70%
    10:00 +9°C° 0 mm 1 mps 587 mmHg 60%
    11:00 +10°C° 0 mm 1 mps 587 mmHg 56%
    12:00 +11°C° 0 mm 1 mps 588 mmHg 52%
    13:00 +12°C° 0 mm 1 mps 588 mmHg 48%
    14:00 +11°C° 0 mm 1 mps 588 mmHg 51%
    15:00 +11°C° 0 mm 1 mps 587 mmHg 54%
    16:00 +10°C° 0 mm 1 mps 587 mmHg 57%
    17:00 +8°C° 0 mm 1 mps 586 mmHg 67%
    18:00 +6°C° 0 mm 1 mps 586 mmHg 77%
    19:00 +3°C° 0 mm 1 mps 585 mmHg 87%
    20:00 +2°C° 0 mm 0 mps 585 mmHg 88%
    21:00 +2°C° 0 mm 0 mps 585 mmHg 89%
    22:00 +1°C° 0 mm 0 mps 585 mmHg 91%
    23:00 +1°C° 0 mm 0 mps 585 mmHg 90%

    20 October, Saturday

    Time Temperature Precipitation Wind Pressure Humidity
    00:00 +1°C° 0 mm 0 mps 585 mmHg 90%
    01:00 +1°C° 0 mm 0 mps 585 mmHg 90%
    02:00 +2°C° 0 mm 1 mps 585 mmHg 89%
    03:00 +2°C° 0 mm 1 mps 585 mmHg 88%
    04:00 +2°C° 0 mm 1 mps 585 mmHg 87%
    05:00 +2°C° 0 mm 1 mps 585 mmHg 85%
    06:00 +1°C° 0 mm 1 mps 585 mmHg 83%
    07:00 +1°C° 0 mm 1 mps 586 mmHg 81%
    08:00 +4°C° 0 mm 1 mps 587 mmHg 70%
    09:00 +6°C° 0 mm 1 mps 588 mmHg 60%
    10:00 +9°C° 0 mm 1 mps 590 mmHg 49%
    11:00 +9°C° 0 mm 1 mps 590 mmHg 47%
    12:00 +10°C° 0 mm 1 mps 590 mmHg 44%
    13:00 +11°C° 0 mm 1 mps 590 mmHg 41%
    14:00 +10°C° 0 mm 1 mps 590 mmHg 45%
    15:00 +9°C° 0 mm 1 mps 590 mmHg 49%
    16:00 +8°C° 0 mm 2 mps 589 mmHg 53%
    17:00 +7°C° 0 mm 1 mps 589 mmHg 63%
    18:00 +5°C° 0 mm 1 mps 588 mmHg 74%
    19:00 +2°C° 0 mm 1 mps 587 mmHg 84%
    20:00 +2°C° 0 mm 1 mps 587 mmHg 85%
    21:00 +2°C° 0 mm 1 mps 587 mmHg 86%
    22:00 +1°C° 0 mm 1 mps 587 mmHg 87%
    23:00 +1°C° 0 mm 1 mps 587 mmHg 87%

    21 October, Sunday

    Time Temperature Precipitation Wind Pressure Humidity
    00:00 +1°C° 0 mm 1 mps 587 mmHg 86%
    01:00 +1°C° 0 mm 1 mps 587 mmHg 86%
    02:00 +1°C° 0 mm 1 mps 587 mmHg 85%
    03:00 +1°C° 0 mm 1 mps 587 mmHg 84%
    04:00 0°C° 0 mm 1 mps 587 mmHg 83%
    05:00 0°C° 0 mm 1 mps 587 mmHg 81%
    06:00 0°C° 0 mm 1 mps 587 mmHg 79%
    07:00 0°C° 0 mm 1 mps 587 mmHg 77%
    08:00 +3°C° 0 mm 1 mps 588 mmHg 65%
    09:00 +6°C° 0 mm 1 mps 590 mmHg 52%
    10:00 +8°C° 0 mm 0 mps 591 mmHg 40%
    11:00 +10°C° 0 mm 1 mps 591 mmHg 37%
    12:00 +11°C° 0 mm 1 mps 591 mmHg 34%
    13:00 +12°C° 0 mm 1 mps 592 mmHg 30%
    14:00 +11°C° 0 mm 1 mps 591 mmHg 35%
    15:00 +10°C° 0 mm 1 mps 591 mmHg 40%
    16:00 +10°C° 0 mm 1 mps 590 mmHg 45%
    17:00 +7°C° 0 mm 1 mps 589 mmHg 54%
    18:00 +5°C° 0 mm 1 mps 588 mmHg 63%
    19:00 +1°C° 0 mm 0 mps 587 mmHg 72%
    20:00 +1°C° 0 mm 0 mps 587 mmHg 71%
    21:00 +1°C° 0 mm 0 mps 587 mmHg 69%
    22:00 +1°C° 0 mm 0 mps 587 mmHg 68%
    23:00 +1°C° 0 mm 0 mps 587 mmHg 67%
    Show more